EHI
0 0 0 0 0 0 0 0 0 0 0 0 0 0 0 0 0 0 0 0 0 0 0 0 0 0 0 0 0 0 0 0 0 0 0 0 0 0
0 0 0 0 0 0 0 0 0 0 0 0 0 0 0 0 0 0 0 0 0 0 0 0 0 0 0 0 0 0 0 0 0 0 0 0 0 0
0 0 0 0 0 0 0 0 0 0 0 0 0 0 0 0 0 0 0 0 0 0 0 0 0 0 0 0 0 0 0 0 0 0 0 0 0 0
0 0 0 0 0 0 0 0 0 0 0 0 0 0 0 0 0 0 0 0 1 0 0 0 0 0 0 0 0 0 0 0 0 0 0 0 0 0
0 0 0 0 0 0 0 0 0 0 0 0 0 0 0 0 0 0 0 0 0 0 0 0 0 0 0 0 0 0 0 0 0 0 0 0 0 0
0 0 0 0 0 0 0 0 0 0 0 0 0 0 0 0 0 0 0 0 0 0 0 0 0 0 0 0 0 0 0 0 0 0 0 0 0 0
0 0 0 0 0 0 0 0 0 0 0 0 0 0 0 0 0 0 0 0 0 0 0 0 0 0 0 0 0 0 0 0 0 0 0 0 0 0
0 0 0 0 0 0 0 0 0 0 0 0 0 0 0 0 0 0 0 0 0 0 0 0 0 0 0 0 0 0 0 0 0 0 0 0 0 0
0 0 0 0 0 0 0 0 0 0 0 0 0 0 0 0 0 0 0 0 0 0 0 0 0 0 0 0 0 0 0 0 0 0 0 0 0 0
0 0 0 0 0 0 0 0 0 0 0 0 0 0 0 0 0 0 0 0 0 0 0 0 0 0 0 0 0 0 0 0 0 0 0 0 0 0
0 0 0 0 0 0 0 0 0 0 0 0 0 0 0 0 0 0 0 0 0 0 0 0 0 0 0 0 0 0 0 0 0 0 0 0 0 0
0 0 0 0 0 0 0 0 0 0 0 0 0 0 0 0 0 0 0 0 0 0 0 0 0 0 0 0 0 0 0 0 0 0 0 0 0 0
0 0 0 0 0 0 0 0 0 0 0 0 0 0 0 0 0 0 0 0 0 0 0 0 0 0 0 0 0 0 0 0 0 0 0 0 0 0
0 0 0 0 0 0 0 0 0 0 0 0 0 0 0 0 0 0 0 0 0 0 0 0 0 0 0 0 0 0 0 0 0 0 0 0 0 0
0 0 0 0 0 0 0 0 0 0 0 0 0 0 0 0 0 0 0 0 0 0 0 0 0 0 0 0 0 0 0 0 0 0 0 0 0 0
0 0 0 0 0 0 0 0 0 0 0 0 0 0 0 0 0 0 0 0 0 0 0 0 0 0 0 0 0 0 0 0 0 0 0 0 0 0
0 0 0 0 0 0 0 0 0 0 0 0 0 0 0 0 0 0 0 0 0 0 0 0 0 0 0 0 0 0 0 0 0 0 0 0 0 0
0 0 0 0 0 0 0 0 0 0 0 0 0 0 0 0 0 0 0 0 0 0 0 0 0 0 0 0 0 0 0 0 0 0 0 0 0 0
0 0 0 0 0 0 0 0 0 0 0 0 0 0 0 0 0 0 0 0 0 0 0 0 0 0 0 0 0 0 0 0 0 0 0 0 0 0
0 0 0 0 0 0 0 0 0 0 0 0 0 0 0 0 0 0 0 0 0 0 0 0 0 0 0 0 0 0 0 0 0 0 0 0 0 0
0 0 0 0 0 0 0 0 0 0 0 0 0 0 0 0 0 0 0 0 0 0 0 0 0 0 0 0 0 0 0 0 0 0 0 0 0 0
0 0 0 0 0 0 0 0 0 0 0 0 0 0 0 0 0 0 0 0 0 0 0 0 0 0 0 0 0 0 0 0 0 0 0 0 0 0
0 0 0 0 0 0 0 0 0 0 0 0 0 0 0 0 0 0 0 0 0 0 0 0 0 0 0 0 0 0 0 0 0 0 0 0 0 0
Wind_Speed
5 5 5 4 4 4 4 4 3 4 4 3 1 1 2 3 4 6 7 11 15 17 17 17 18 18 18 19 18 18 17 16 16 16 16 16 17 17
5 5 5 4 4 4 4 4 4 4 5 3 2 3 4 3 2 4 5 8 12 15 16 16 17 17 17 18 18 17 17 16 16 16 15 15 15 15
6 6 7 6 5 4 4 4 5 4 6 5 3 3 3 3 1 1 2 3 4 10 13 14 15 16 16 17 17 17 16 16 15 15 15 15 14 14
8 7 8 6 7 5 5 6 5 5 5 7 4 3 3 2 1 2 1 1 2 6 9 11 12 13 14 14 15 15 15 15 14 14 14 14 13 13
9 9 9 8 8 6 6 6 5 5 5 5 5 3 2 1 1 1 2 2 3 4 7 8 9 10 11 12 12 13 13 13 13 13 12 12 12 11
9 9 9 9 9 8 7 7 6 6 6 5 5 4 3 2 2 3 3 3 3 3 5 5 7 8 9 10 11 12 12 12 12 12 12 11 11 10
9 9 10 12 13 10 7 7 7 6 6 5 5 4 4 3 3 3 4 4 3 3 4 3 4 4 4 7 9 11 12 12 12 12 11 11 11 11
10 9 10 12 14 15 16 14 11 9 8 6 6 6 6 4 3 4 5 5 4 4 4 3 3 4 3 3 7 10 11 12 12 12 12 12 12 12
10 9 9 9 11 9 12 14 14 15 13 8 8 8 6 5 5 6 6 6 4 6 5 4 3 4 3 5 9 10 11 12 12 13 13 13 13 12
10 10 11 11 10 10 10 10 10 10 11 10 8 8 8 5 5 5 5 5 4 4 4 5 3 3 3 5 8 10 11 12 13 13 14 14 13 13
10 10 11 11 13 13 11 10 10 9 10 11 11 10 10 9 6 5 6 7 6 4 2 5 4 4 3 3 6 10 11 12 13 14 15 15 15 13
7 8 12 12 12 13 11 10 11 9 8 7 8 9 9 9 11 9 8 8 6 5 4 5 6 5 4 2 3 4 7 10 12 13 15 15 13 9
6 6 7 11 13 14 12 10 11 9 8 8 7 6 6 6 7 8 7 7 7 5 8 7 6 4 5 4 2 2 4 5 6 8 11 11 10 8
7 6 6 9 11 12 10 10 11 10 6 6 6 6 6 6 6 8 8 6 4 5 10 9 7 7 7 6 5 4 3 4 5 6 7 9 8 8
6 8 8 9 8 8 11 12 10 7 7 7 7 7 6 6 6 6 7 5 4 7 9 6 9 9 6 7 8 7 5 4 5 6 7 6 6 6
5 6 7 7 6 5 5 7 7 7 8 7 7 6 5 5 6 6 6 6 5 4 5 5 9 12 6 6 8 8 7 8 8 7 7 5 5 5
3 2 2 3 3 3 4 5 6 6 7 6 6 6 6 6 6 6 6 7 6 7 7 5 5 5 5 7 8 9 9 7 8 9 7 6 5 5
3 3 4 4 4 4 4 4 5 6 6 6 6 6 6 6 6 6 6 7 7 7 8 8 8 6 5 4 3 9 8 7 8 9 7 6 6 6
3 4 4 4 4 4 4 4 5 5 5 6 6 6 6 6 6 6 7 7 7 8 8 9 9 8 8 6 4 5 8 9 10 9 8 6 6 7
4 4 5 4 4 4 4 4 4 4 5 6 6 6 6 5 6 7 7 8 8 8 8 8 9 8 8 8 7 6 9 11 10 10 8 5 4 5
4 5 5 4 4 4 4 4 5 5 5 6 6 6 6 6 5 6 7 10 9 8 10 9 7 8 6 8 7 5 7 8 7 8 10 8 6 6
5 5 5 5 4 4 4 4 5 5 6 6 6 6 6 6 6 7 7 8 8 8 8 8 10 8 5 7 8 9 8 8 7 8 8 6 7 9
5 5 4 4 4 3 3 4 5 5 5 6 6 6 7 6 6 7 7 8 8 9 9 9 8 6 5 6 8 8 12 11 8 8 6 1 3 5
Wind_Direction
251 250 246 250 245 242 241 241 261 290 295 287 289 317 301 259 229 217 222 213 206 203 202 200 198 195 194 196 198 200 202 204 206 207 208 209 210 213
248 248 249 247 247 243 239 240 237 251 272 283 294 306 303 290 248 221 220 211 206 200 197 196 196 193 193 194 195 198 200 202 203 203 204 205 206 210
254 246 250 247 245 244 239 239 240 240 262 278 272 287 284 275 263 208 198 196 194 193 190 190 191 190 191 191 193 196 197 199 200 200 200 201 202 204
253 248 251 251 245 242 237 238 240 236 248 272 284 283 280 263 229 174 142 144 148 164 171 177 182 185 185 187 190 192 194 195 195 194 194 194 196 197
249 246 247 246 248 243 238 239 240 242 236 252 270 271 273 242 197 153 133 122 114 126 139 153 165 172 178 182 183 184 186 186 185 185 186 185 184 183
249 245 243 240 242 243 240 238 238 241 241 244 256 261 257 235 195 174 155 139 124 110 108 115 133 144 160 169 173 175 176 175 174 172 171 170 168 167
254 248 244 241 240 237 235 231 229 231 235 236 243 248 242 216 204 178 162 139 115 122 117 108 116 120 133 150 159 162 163 163 162 159 156 155 153 151
259 254 249 252 251 248 243 236 225 223 227 229 229 234 238 221 204 181 158 157 154 147 128 104 99 102 90 108 134 143 146 148 148 147 145 145 143 140
256 254 255 251 244 239 242 242 237 232 224 224 229 229 230 218 198 191 184 171 156 153 133 112 94 90 69 83 112 126 132 136 138 138 137 136 134 132
254 251 250 253 248 236 235 237 238 237 232 230 232 232 228 216 206 195 176 143 114 132 129 120 106 87 67 65 89 111 121 127 130 130 129 128 127 124
259 253 249 250 245 233 232 235 238 240 240 234 228 231 224 211 198 176 170 166 155 146 114 119 122 102 75 58 69 95 110 119 123 125 125 124 121 116
263 257 251 248 243 229 228 228 233 235 233 230 224 228 226 215 201 194 184 180 158 151 159 130 133 133 115 79 64 85 98 104 113 120 124 126 128 124
263 261 255 246 241 232 225 227 229 224 223 223 222 221 220 212 206 204 195 190 175 157 163 145 138 133 124 125 107 93 113 124 118 117 121 126 131 134
258 259 259 255 245 236 228 227 221 214 218 215 218 217 215 212 207 201 197 198 185 158 163 155 142 149 138 137 141 134 124 132 134 133 132 126 113 102
256 261 263 264 257 241 233 224 214 211 209 210 214 214 212 210 198 191 185 173 146 145 159 164 146 149 148 144 145 149 148 155 155 146 146 149 146 145
269 271 268 265 257 248 231 219 214 208 206 212 212 209 202 201 198 187 177 163 147 135 140 148 153 151 143 143 148 154 157 156 162 158 148 146 150 157
288 280 267 254 247 239 226 214 208 202 206 209 206 202 198 199 196 185 173 166 164 156 146 133 118 106 113 140 147 154 150 147 158 157 155 156 167 173
263 258 259 253 244 238 226 216 207 203 201 200 202 202 197 193 192 184 178 174 168 158 152 150 141 123 103 60 110 152 152 148 154 160 159 159 169 177
245 257 259 256 249 239 230 222 217 205 195 197 200 199 195 189 186 186 182 176 171 163 159 160 164 158 157 158 154 162 156 150 153 162 172 167 170 170
243 256 262 259 250 241 231 224 218 206 197 198 200 197 191 188 186 185 183 177 168 162 160 169 177 178 174 159 148 161 165 157 158 162 162 146 117 121
261 258 260 256 250 243 234 223 214 208 204 198 199 196 190 187 189 187 181 173 167 166 171 177 171 143 110 113 117 131 160 164 153 156 155 151 151 160
263 263 264 258 250 238 228 219 210 206 202 201 198 194 191 189 191 188 180 173 173 171 167 155 149 150 153 158 150 142 144 150 141 137 152 150 165 178
263 261 262 260 252 241 226 216 207 202 198 196 193 188 186 189 190 184 181 174 168 163 155 152 155 161 159 150 143 142 148 152 152 153 161 126 116 130